Theta_e
301 301 300 300 300 299 298 297 296 295 296 296 297 298 298 298 298 297 298 299 299 300 300 300 297 296 296 294 294 294 294 294 294 294 294 294 294 294 294 294 295 294 293 293 293 292 291 290 289 288 289 289 289 289 289 289 289 288 288 289 289 289 289 287 288 290 289 286 288 288 288 289 290 289 288 289 289 289 289 289 289 289 289 289 289
300 299 299 297 297 297 296 296 295 295 295 295 296 297 298 298 297 298 298 298 298 299 299 300 299 298 296 295 296 295 294 293 293 293 293 294 294 294 294 294 294 294 293 293 292 292 290 289 289 288 288 288 289 289 288 289 288 287 288 288 287 289 289 288 287 289 290 289 286 286 287 289 290 288 288 288 289 289 288 289 289 289 289 289 289
298 299 299 297 297 295 294 294 294 295 297 295 296 296 297 297 297 297 297 297 298 298 299 299 299 299 298 298 297 296 296 295 295 294 294 293 293 294 293 294 294 293 293 292 292 291 290 290 289 288 288 288 287 287 287 287 287 287 288 288 286 288 288 287 287 288 291 289 290 288 285 286 288 287 288 287 288 288 288 288 288 288 288 288 288
297 298 298 298 298 293 293 293 295 295 294 294 294 295 296 297 297 297 296 297 297 298 298 299 299 299 297 296 297 296 294 294 294 293 293 293 292 292 293 293 293 293 292 292 292 291 291 290 289 288 288 288 288 287 287 287 287 286 287 288 289 287 287 287 288 286 287 290 288 289 285 287 285 286 287 287 287 287 288 287 288 287 288 288 289
296 297 298 298 296 295 295 296 294 293 294 294 295 295 295 296 297 297 296 296 297 297 298 298 297 295 294 293 294 293 293 293 292 291 292 292 292 291 291 292 292 292 292 292 292 291 291 290 289 289 288 288 288 287 287 287 287 287 287 287 288 290 286 288 286 286 286 284 291 285 285 286 288 287 285 285 286 286 286 287 288 287 287 287 287
295 296 296 296 295 295 293 292 292 293 293 294 295 295 295 296 296 296 296 296 296 296 297 296 296 294 292 292 291 291 290 290 290 290 290 290 290 291 291 291 292 292 292 292 292 291 291 290 290 289 288 287 287 287 287 287 287 286 287 287 287 289 289 287 286 286 285 287 287 287 293 296 289 285 286 285 284 286 285 286 286 286 286 286 287
295 295 295 295 295 293 293 293 292 292 293 293 294 294 294 295 296 296 296 295 296 296 296 296 295 295 294 294 294 292 292 292 293 294 292 292 293 291 291 291 292 292 291 291 292 292 291 290 290 289 288 287 287 287 286 287 287 287 287 286 288 287 288 288 287 286 286 286 286 287 286 284 289 287 286 285 283 285 285 284 285 286 285 286 286
293 294 294 294 293 292 292 292 291 291 291 291 292 293 293 294 295 295 295 295 295 295 295 296 295 294 294 294 294 294 294 294 293 294 294 293 292 291 291 290 291 291 291 291 291 291 290 290 289 289 288 288 287 286 287 287 287 287 287 287 287 287 287 289 287 286 288 285 286 286 285 285 285 287 289 290 289 285 283 283 284 285 285 285 286
292 292 293 293 292 291 290 289 289 289 289 289 291 292 292 293 294 294 294 294 294 294 295 295 295 295 294 294 294 295 295 294 293 293 292 292 291 291 290 290 290 290 291 290 290 290 290 289 289 288 288 287 287 287 287 287 287 286 286 285 285 285 286 287 287 286 287 286 284 283 285 285 284 285 285 287 287 287 285 284 284 284 284 285 285
292 291 291 292 291 290 289 289 289 288 287 288 290 290 291 291 292 292 293 293 294 294 294 294 295 294 294 294 294 294 294 291 292 291 291 291 291 290 290 289 289 289 289 290 290 290 290 289 289 288 288 287 287 287 287 286 286 286 286 286 286 286 285 286 287 287 287 287 287 287 286 284 286 285 285 283 284 287 287 285 285 284 283 284 284
292 292 292 291 291 290 290 290 289 289 288 288 289 289 290 291 291 291 292 292 293 293 294 294 294 294 294 294 293 293 292 291 291 290 290 290 290 289 289 289 289 289 289 289 289 289 289 289 288 288 288 287 287 287 286 286 286 286 286 286 286 286 285 285 287 286 286 286 286 287 287 287 287 286 285 285 287 284 282 283 282 283 284 283 283
291 291 291 291 290 290 289 288 288 288 288 288 288 288 289 289 290 290 290 291 291 292 293 293 294 294 294 293 293 293 292 291 291 290 290 289 290 289 289 289 288 289 288 288 288 288 289 288 288 288 287 287 287 287 286 286 286 286 286 285 285 286 285 284 285 284 284 285 285 286 287 288 287 288 287 287 286 286 286 286 284 282 281 282 283
289 289 289 289 288 288 287 287 287 287 287 287 287 288 288 288 288 289 289 290 291 291 292 293 293 293 293 293 293 293 292 292 292 291 291 290 290 290 288 288 288 287 287 287 288 288 288 287 287 287 287 287 287 287 286 286 286 285 285 285 285 285 284 284 283 284 284 284 284 285 285 285 285 285 286 286 286 286 286 284 283 282 282 281 281
288 289 288 288 288 288 287 287 287 286 286 286 287 287 287 288 288 288 289 288 289 290 291 292 292 293 293 293 293 293 292 292 292 292 291 291 291 290 289 289 288 288 287 287 288 288 288 288 288 287 288 287 287 287 286 286 285 285 285 285 285 285 284 283 283 283 283 284 285 283 283 284 284 284 285 285 284 284 283 284 282 281 280 281 281
288 288 288 288 288 288 287 287 287 287 287 286 286 286 287 287 287 287 288 288 288 289 290 291 291 292 292 293 293 293 293 292 292 292 291 290 291 291 290 290 289 289 289 289 289 288 288 288 288 287 287 287 287 286 286 285 285 285 285 285 284 285 284 283 283 282 282 282 283 284 283 283 283 283 284 285 285 287 286 284 283 280 279 279 280
287 287 287 287 287 287 288 287 287 287 287 287 287 287 286 286 287 287 287 287 288 288 289 290 290 291 291 291 291 292 292 292 291 291 291 291 291 291 290 290 290 290 290 289 289 288 287 287 287 287 287 287 286 286 285 284 284 284 284 284 283 284 283 283 283 282 282 283 283 283 283 283 283 283 284 284 284 285 285 285 285 284 282 280 280
286 286 286 286 287 287 287 287 287 288 287 287 287 287 287 286 286 286 286 287 287 287 288 289 289 290 290 290 290 291 290 290 290 290 290 290 290 290 290 290 290 290 289 289 288 288 287 287 287 286 286 286 286 285 285 284 284 283 283 283 283 283 283 283 283 282 283 283 283 282 283 283 282 282 283 283 283 283 284 284 285 285 284 282 281
285 285 286 286 286 287 287 287 287 287 287 287 288 288 288 287 286 285 286 285 286 286 286 288 287 288 288 289 289 290 289 289 290 289 289 289 289 289 289 289 289 289 289 288 288 287 287 286 286 286 285 285 285 285 284 284 283 283 283 283 284 283 283 283 283 283 282 282 282 282 283 283 282 282 283 283 283 283 283 283 283 283 284 282 283
284 284 285 285 285 286 286 287 287 288 288 288 288 288 288 288 287 286 286 285 285 285 285 285 286 287 288 288 287 288 288 288 288 289 288 287 287 288 288 288 288 288 288 287 287 286 286 286 286 285 285 284 284 284 284 283 283 283 283 283 283 283 283 282 282 282 282 282 281 281 282 282 282 282 282 282 282 282 283 283 283 283 282 283 283
283 283 284 284 285 285 285 286 286 287 287 288 288 288 288 288 287 287 287 287 286 286 285 285 285 285 286 286 287 287 287 287 287 287 287 287 287 287 287 287 287 287 287 287 287 286 286 285 285 285 284 284 284 284 283 283 283 283 283 282 282 282 282 282 281 282 281 281 281 281 281 281 281 281 281 281 282 282 282 282 282 282 282 282 282
282 283 283 283 284 285 285 286 286 287 287 288 288 287 287 287 287 287 286 286 286 287 286 286 285 285 285 285 286 286 287 287 287 286 287 287 287 287 287 287 287 286 286 286 286 286 286 285 285 285 284 283 283 283 283 283 282 282 282 282 282 281 281 282 281 281 281 281 281 281 281 281 281 281 281 281 281 281 281 282 282 281 281 281 280
282 282 282 283 283 284 284 285 286 286 286 286 287 287 287 287 287 287 286 286 286 287 287 286 286 285 284 285 285 286 286 286 286 286 286 287 287 287 287 286 286 287 286 286 286 286 286 285 285 284 284 284 283 283 283 283 282 282 281 282 281 281 281 281 281 280 280 280 281 280 280 280 280 280 280 280 281 280 280 280 280 280 280 280 281
281 282 282 282 282 283 283 284 285 285 286 286 286 287 287 286 286 286 286 286 286 287 287 287 287 286 286 285 284 285 285 285 285 286 286 287 287 287 286 286 286 286 286 286 286 286 285 285 285 285 284 283 283 283 283 282 282 282 281 281 281 281 281 281 280 280 280 280 280 280 280 280 280 279 280 280 280 280 280 280 280 280 280 280 280
281 282 282 282 282 283 283 283 284 284 285 285 286 286 286 286 286 286 286 285 286 286 287 287 287 287 287 286 285 285 284 285 285 286 286 287 287 287 286 286 286 286 285 286 286 286 285 285 285 285 284 284 283 283 282 282 282 282 281 281 281 281 281 281 280 280 280 279 279 279 279 279 279 279 279 279 279 280 279 279 279 279 279 279 279
281 281 281 282 282 282 282 283 283 284 285 285 285 285 286 286 286 286 285 286 286 286 286 287 287 287 287 287 286 286 285 284 284 285 285 286 286 287 286 286 286 285 285 285 285 285 285 285 284 284 284 283 283 283 282 282 282 282 282 281 281 280 281 281 281 280 280 279 279 279 279 279 279 278 278 278 278 278 278 279 278 278 278 278 278
280 280 281 281 281 282 282 282 283 284 284 285 285 285 285 285 285 286 285 285 285 286 286 286 286 286 286 286 287 287 286 286 285 285 285 285 286 286 286 286 286 285 285 285 285 285 284 284 284 285 284 284 284 283 283 282 282 282 282 282 281 281 281 281 281 281 280 280 280 280 279 279 279 278 278 277 277 277 277 277 277 277 277 277 277
280 280 280 281 281 281 282 283 283 284 284 285 285 285 285 285 285 285 285 285 285 286 286 286 286 286 286 286 286 286 286 286 286 286 286 286 285 286 286 286 285 285 285 284 284 284 285 285 284 284 284 284 284 283 283 283 282 282 282 281 281 281 281 281 281 281 280 280 280 280 279 279 278 279 278 277 277 277 276 275 276 275 276 275 275
280 280 280 280 280 281 282 282 283 284 284 284 285 285 285 285 284 285 285 285 286 285 285 285 285 285 285 285 286 286 286 286 286 286 286 285 285 285 286 286 286 285 285 285 284 284 284 284 284 284 285 285 284 284 283 283 282 282 282 281 281 281 280 280 281 281 280 280 280 280 280 279 279 280 279 278 277 276 276 275 275 275 275 274 274
279 280 280 280 280 281 281 282 283 284 284 284 284 285 285 284 284 285 285 285 285 285 284 284 284 284 285 285 285 285 285 285 285 286 286 286 286 285 285 286 286 285 285 285 285 285 284 284 284 284 284 284 284 283 283 283 282 282 282 281 281 281 281 280 280 280 280 280 280 280 280 279 279 280 280 279 279 278 275 274 274 274 273 273 272
279 279 280 280 280 281 281 282 283 283 284 284 284 284 284 283 283 284 284 285 285 284 284 284 283 284 285 285 284 284 284 284 285 285 285 285 285 285 285 285 285 285 285 285 285 284 284 284 284 284 284 283 283 284 284 285 285 283 282 282 281 281 281 281 280 279 279 279 279 279 279 280 280 280 280 280 280 280 279 276 274 273 273 272 271
279 279 280 280 280 281 281 282 282 283 283 283 283 284 283 283 283 283 283 284 285 284 284 283 283 284 284 284 284 283 283 283 284 284 284 285 285 285 285 285 285 285 285 285 284 284 284 284 284 284 283 283 283 284 286 287 287 286 283 282 281 281 281 280 280 280 279 279 279 279 279 280 280 280 280 281 281 281 279 278 278 277 276 272 270
278 279 280 280 280 280 280 281 282 283 283 283 283 283 282 282 283 282 283 283 284 284 283 283 283 284 284 283 283 282 282 282 283 283 283 284 284 284 284 284 284 284 284 284 284 283 284 284 284 284 284 283 283 285 286 287 287 287 285 282 282 281 280 280 280 280 279 279 278 278 278 278 279 279 279 279 280 281 280 279 278 278 278 277 276
278 279 280 280 280 280 280 281 281 282 282 283 283 282 282 282 282 282 282 282 282 282 282 282 283 283 284 283 282 281 281 281 282 282 282 282 282 282 283 283 283 284 284 283 283 283 283 283 283 283 283 283 283 286 287 287 287 287 287 284 281 281 280 280 280 279 279 279 278 277 277 277 278 279 279 279 279 278 280 279 279 278 278 278 277
279 279 280 280 280 280 280 281 281 282 283 283 282 282 282 281 281 281 280 281 281 281 281 281 282 283 283 283 282 281 281 281 281 281 281 281 281 281 282 282 283 283 283 283 283 283 283 283 283 283 283 283 283 285 287 287 287 287 288 286 281 281 280 280 279 279 279 278 277 277 276 276 277 278 278 278 278 278 278 277 277 276 276 277 278
279 279 279 280 280 280 280 280 281 281 281 281 281 281 281 280 280 279 279 280 280 279 279 280 281 282 282 282 281 280 280 280 280 281 281 280 281 281 281 282 282 282 282 282 282 282 283 283 283 283 283 283 283 286 286 287 287 288 288 287 282 281 280 280 279 279 279 278 277 277 276 276 277 277 277 278 277 277 277 276 276 275 275 276 276
280 279 280 280 279 279 279 280 281 281 280 280 279 280 279 278 278 278 278 278 278 277 277 278 279 280 280 280 279 278 278 279 280 280 280 280 281 281 280 281 281 281 282 282 282 282 282 282 283 282 282 282 283 286 286 287 287 288 288 286 283 281 280 279 279 279 279 278 277 277 276 276 276 276 278 280 279 277 276 275 274 274 274 275 276
280 280 280 281 280 279 279 279 279 279 279 279 279 279 278 277 276 276 276 276 276 275 276 277 278 278 278 277 277 276 277 279 280 280 280 280 280 280 281 281 280 280 280 281 281 281 282 282 282 282 281 282 282 284 286 286 287 288 287 285 283 281 280 279 278 278 277 277 276 276 276 276 276 276 279 281 281 279 275 274 273 273 273 274 275
279 279 279 279 279 279 278 279 278 278 278 278 278 277 276 275 275 275 275 274 274 274 275 276 276 276 276 275 275 275 276 279 280 279 279 279 280 280 280 280 279 279 279 280 280 280 281 281 281 281 282 281 282 283 285 286 287 287 287 285 283 281 279 278 278 277 277 276 276 278 277 275 275 276 281 282 282 279 275 274 274 273 273 273 274
278 278 278 278 278 278 278 278 277 276 277 277 276 274 274 274 274 274 274 273 273 274 274 274 275 275 274 274 274 274 276 279 279 279 278 278 279 279 279 279 278 278 278 279 279 279 279 280 281 281 282 281 281 282 284 285 286 287 287 285 283 281 279 278 277 275 275 275 276 278 278 277 276 277 282 283 283 279 275 275 274 273 272 272 273
278 278 277 277 277 277 276 276 276 276 276 275 274 274 273 273 273 273 272 272 273 273 274 274 274 273 273 272 273 273 275 277 277 277 277 277 278 278 278 279 279 278 278 278 278 278 278 279 280 280 280 281 281 281 282 284 286 287 287 285 283 280 278 277 276 274 274 274 275 276 278 280 280 280 282 283 283 281 276 275 275 273 272 271 274
277 277 278 277 276 276 275 275 275 275 275 274 273 272 272 272 272 271 271 272 273 273 273 272 272 271 271 271 271 272 273 275 276 275 276 276 277 277 277 277 277 278 277 276 276 277 277 277 279 279 279 279 280 280 280 283 285 287 287 286 282 280 279 277 275 274 274 273 274 275 276 279 280 281 282 283 283 281 278 275 274 273 274 274 276
277 277 277 276 275 275 274 274 275 274 273 272 271 271 271 271 270 270 271 272 272 272 271 270 270 269 269 269 269 270 272 273 273 273 273 274 275 276 276 276 277 276 276 276 276 276 276 276 277 277 277 277 279 280 279 282 284 286 287 287 282 280 279 277 275 274 274 273 274 275 275 278 280 281 282 283 283 282 279 275 274 277 278 278 274
276 276 276 275 273 274 273 273 274 273 273 272 270 269 269 270 269 270 271 271 271 270 269 269 268 268 268 268 268 269 270 271 271 271 271 271 272 274 275 276 275 275 275 275 275 275 275 275 275 275 275 276 276 278 281 280 282 284 286 287 285 281 282 278 276 274 274 273 274 275 276 279 281 281 282 284 284 283 280 275 278 279 278 279 276
275 275 274 273 272 272 272 272 272 272 271 271 269 268 268 268 269 271 270 270 269 268 268 267 267 266 266 267 267 268 269 269 268 268 269 269 270 272 274 275 275 275 275 275 275 275 274 274 274 274 274 274 275 275 278 281 281 283 285 287 286 283 282 278 276 276 275 274 274 275 276 280 281 281 282 283 284 282 278 278 279 279 279 279 275
274 274 273 271 271 270 270 270 271 270 270 270 269 267 267 267 269 269 268 268 267 266 266 265 265 265 265 266 266 266 266 266 266 267 267 268 270 271 272 274 274 274 274 274 274 275 274 274 274 274 274 273 273 274 275 278 281 282 284 286 287 284 283 281 277 276 276 275 276 277 278 280 281 282 282 283 284 283 280 279 279 280 279 277 273
272 272 271 270 269 268 268 268 269 269 269 269 268 267 266 267 268 268 267 266 265 264 264 264 264 264 264 264 264 264 264 265 265 266 267 268 269 270 271 273 274 274 274 274 274 274 274 274 273 274 274 274 273 273 274 275 278 281 282 284 286 285 283 282 279 277 278 278 278 279 279 280 281 281 280 280 280 281 280 280 280 280 277 274 273
270 271 269 268 268 267 267 267 266 268 267 267 266 266 267 267 266 266 266 264 263 263 262 262 262 262 262 263 262 262 263 263 264 265 266 267 269 270 271 272 273 273 274 274 274 274 274 274 273 273 274 274 273 273 273 274 276 278 280 282 284 283 283 282 278 277 278 277 277 278 278 279 280 281 281 281 281 281 281 279 278 278 274 271 271
270 269 267 266 266 266 265 265 265 266 266 266 265 265 265 265 264 264 263 262 261 261 261 261 261 261 261 261 261 262 262 262 263 264 264 266 267 269 270 272 273 273 273 273 274 274 274 274 274 274 274 273 272 272 273 273 274 276 278 280 282 281 280 280 277 276 276 276 276 278 278 278 279 279 279 278 278 279 278 277 275 272 270 270 270
267 267 266 265 265 264 264 264 264 265 264 264 264 264 263 263 263 262 261 260 260 260 260 259 260 260 260 261 261 261 261 262 262 263 264 266 267 268 270 272 274 275 274 274 274 275 275 275 275 275 274 273 273 272 273 276 275 278 277 278 280 280 280 279 277 278 275 276 276 275 275 276 276 276 275 275 274 272 269 268 268 268 269 269 269
266 265 265 264 263 263 262 262 262 263 262 262 261 261 261 261 261 260 260 259 259 258 258 258 258 258 259 259 260 260 261 262 262 263 264 265 269 272 272 272 273 277 278 279 279 276 276 277 276 276 276 275 274 274 277 278 278 279 280 281 282 283 282 279 279 280 277 274 274 274 274 274 275 274 273 271 270 268 266 266 267 268 266 266 266
264 263 263 262 262 261 261 260 260 260 260 260 259 259 259 259 259 259 259 258 258 257 257 258 258 258 259 259 259 260 260 260 261 261 262 263 264 266 272 274 275 275 277 278 280 280 281 281 278 276 277 280 280 279 278 278 279 280 280 281 283 283 283 281 281 277 275 273 273 272 273 273 273 272 271 270 268 266 266 266 266 266 265 265 265
Wind_Speed
14 6 5 6 7 7 7 6 7 7 7 9 10 11 13 14 12 15 12 10 9 10 9 10 11 9 6 10 12 10 10 9 9 9 10 9 10 11 11 10 10 10 10 10 10 9 8 8 8 8 8 8 8 9 8 8 7 6 6 4 6 5 3 3 2 3 8 6 5 5 4 3 3 3 4 3 3 3 3 4 3 4 5 5 5
10 8 8 4 6 6 5 5 4 6 10 10 12 14 15 13 15 13 9 10 11 11 11 10 10 11 12 11 10 9 10 12 12 11 11 8 9 9 9 9 9 10 10 10 8 9 9 9 9 9 9 8 7 6 7 7 8 7 7 5 1 4 4 4 4 4 2 5 7 4 2 1 2 3 3 3 3 3 3 4 4 5 5 4 4
15 14 10 4 5 6 6 5 7 10 10 10 11 9 10 12 12 11 11 12 12 14 10 11 9 9 9 6 8 5 4 3 1 3 5 8 8 8 8 9 10 9 10 10 9 9 9 9 9 9 9 8 9 9 9 9 8 9 9 8 6 1 1 1 3 3 3 2 3 5 3 3 2 1 1 1 1 3 2 3 4 5 5 4 4
17 18 18 10 3 3 4 6 9 7 8 7 8 9 8 10 11 12 13 13 12 13 14 11 9 7 5 3 5 5 5 6 6 5 7 7 9 9 9 9 10 9 10 10 8 9 11 11 10 9 10 9 9 10 10 10 9 8 8 6 5 6 3 4 1 3 2 6 4 1 2 1 2 6 3 1 1 2 3 3 3 3 4 3 3
14 17 16 13 10 8 7 8 6 7 8 9 8 9 8 12 13 13 12 13 12 13 13 10 10 8 6 6 5 5 4 7 7 6 9 8 7 9 10 9 10 10 11 12 11 12 11 10 10 10 10 10 9 9 10 11 11 9 9 7 10 8 7 2 3 2 4 3 3 6 2 2 3 2 3 1 0 2 2 2 3 3 4 3 3
9 14 13 13 12 11 8 8 7 7 9 8 5 7 8 8 8 9 8 9 10 12 14 11 11 11 11 10 9 8 8 10 15 15 11 13 12 6 7 11 10 10 10 11 10 10 10 10 10 10 10 9 9 9 8 8 9 10 11 9 10 5 6 6 5 2 1 1 1 2 0 2 4 2 2 3 1 0 1 2 2 3 2 2 2
8 8 9 11 12 11 10 9 8 8 9 7 6 7 8 7 7 9 9 8 9 11 13 11 10 9 13 13 11 10 10 9 1 1 6 5 4 10 8 8 11 11 10 10 10 9 9 9 10 9 9 9 8 8 9 10 10 10 8 8 8 5 5 8 9 6 3 1 1 1 3 1 1 7 4 3 3 2 2 2 2 2 2 1 3
10 12 12 10 10 11 13 10 9 10 10 9 8 6 7 7 7 9 7 8 8 10 13 12 11 10 11 13 12 10 10 7 8 5 5 6 6 7 8 8 8 9 10 10 10 9 9 9 8 8 9 8 8 9 9 9 7 6 8 7 5 5 7 7 9 6 10 5 2 3 3 3 3 5 3 4 3 4 4 2 0 2 1 1 3
8 11 13 13 14 14 11 12 11 13 13 13 11 7 5 4 5 6 8 8 8 11 11 12 11 11 11 9 10 7 8 6 7 6 6 6 8 6 8 8 8 8 8 9 9 10 9 10 10 9 9 9 9 8 8 9 11 11 10 9 9 7 7 4 6 9 6 7 7 2 3 4 4 4 2 3 2 4 2 4 4 1 1 2 2
9 8 8 11 11 8 7 8 15 13 10 12 12 11 6 2 2 4 6 5 6 9 10 11 11 9 10 11 12 9 7 5 7 8 8 8 8 7 6 7 8 8 8 9 10 10 10 10 10 11 11 10 10 10 9 10 10 10 11 11 10 9 6 6 8 7 6 5 8 8 5 3 3 2 1 2 3 2 2 5 4 6 4 2 1
9 7 10 12 9 12 15 19 15 14 12 11 10 9 8 7 4 1 2 2 1 4 7 10 10 9 10 11 12 11 9 9 9 9 9 8 9 9 8 7 6 7 7 8 9 10 10 10 9 10 9 9 9 10 11 11 11 11 10 10 10 10 8 7 5 5 5 7 6 8 11 11 10 7 7 5 4 4 2 1 2 2 1 3 0
14 18 20 20 23 22 21 21 18 16 13 12 10 9 8 6 5 4 4 2 0 4 6 7 7 9 9 10 12 12 11 9 12 12 12 12 11 10 8 7 8 7 6 7 9 9 9 9 10 9 10 10 11 10 9 10 9 8 9 9 9 8 6 7 6 8 8 6 7 6 6 7 4 6 7 7 8 5 5 3 4 4 1 0 1
17 15 17 19 18 19 20 20 19 18 15 13 11 9 8 8 7 5 4 4 3 4 4 6 8 9 9 9 10 8 9 10 9 8 7 8 8 9 10 10 8 9 9 9 9 11 9 10 10 11 11 11 10 10 10 10 9 9 9 10 9 10 9 9 8 10 10 10 9 6 4 5 4 1 5 6 3 3 4 4 2 1 2 3 0
14 14 15 16 16 15 16 16 16 15 16 14 13 11 9 8 8 8 7 5 4 2 4 5 7 7 7 7 7 7 8 8 7 7 6 5 5 7 8 9 10 12 12 13 12 11 11 12 11 11 10 10 11 11 10 10 10 10 10 10 11 9 8 10 8 8 8 6 5 7 6 6 3 3 5 6 7 7 4 5 5 2 2 2 1
14 15 15 15 16 16 14 14 13 14 15 13 12 11 9 8 8 8 8 8 6 5 4 5 5 6 6 6 7 5 6 5 5 4 5 7 6 7 7 6 8 9 10 9 9 12 12 9 10 9 9 9 9 10 9 9 9 8 9 9 8 8 9 8 8 9 9 9 9 8 6 5 4 5 5 6 6 7 7 7 7 6 2 2 2
15 15 16 17 16 16 16 16 14 14 15 16 18 15 14 12 11 10 8 7 6 6 6 5 6 5 6 7 7 7 6 5 4 4 4 5 7 7 7 8 7 6 6 7 9 9 10 10 10 10 10 9 8 8 9 9 10 10 9 9 11 7 10 11 9 9 9 10 9 7 6 6 5 6 5 5 5 4 4 5 6 6 5 3 3
16 15 14 16 17 18 16 16 16 17 18 17 17 16 17 16 14 14 12 9 8 6 5 5 5 6 6 6 7 7 7 8 7 6 6 6 6 7 7 8 7 7 7 8 7 8 8 9 9 9 9 9 10 10 10 9 10 10 9 11 11 10 10 11 9 10 9 9 7 10 8 6 6 6 5 5 6 5 5 5 5 7 6 4 4
12 13 13 14 13 15 15 14 15 16 16 17 18 14 13 13 14 14 13 13 10 8 7 5 5 5 6 6 7 8 7 7 7 7 6 6 7 6 6 6 9 8 9 8 8 10 9 11 9 10 9 10 11 10 11 11 11 10 10 10 9 10 10 8 9 9 9 8 8 8 7 7 6 7 7 7 7 6 6 6 6 3 5 8 6
13 14 14 14 13 13 14 15 14 14 14 14 14 15 15 14 13 12 14 12 10 8 7 6 5 5 4 6 7 8 7 7 7 6 6 8 9 9 9 9 7 7 7 7 8 9 9 9 10 9 9 11 10 10 10 10 11 10 10 10 9 10 10 10 9 9 8 9 10 11 8 7 7 8 7 6 6 6 6 5 4 4 4 4 5
8 8 8 10 12 13 14 15 15 15 16 15 16 15 18 16 16 15 13 12 12 12 9 9 8 6 7 6 7 7 7 8 8 8 8 9 10 10 10 10 10 8 8 8 8 9 9 10 10 10 10 10 11 10 10 10 10 10 10 10 10 11 11 11 10 9 7 9 11 11 10 8 9 7 7 7 7 6 6 6 6 5 4 4 4
13 14 14 15 16 16 15 13 12 11 11 12 13 14 13 14 16 16 18 18 17 14 12 11 8 8 8 9 10 9 10 8 9 8 9 9 8 9 9 10 8 10 8 9 9 9 9 10 10 10 11 11 12 11 10 10 11 11 10 10 10 12 12 10 10 11 9 10 10 11 11 9 9 9 8 8 7 8 7 6 6 6 5 5 6
10 10 10 10 10 10 9 11 12 14 16 17 15 14 15 15 13 13 14 15 16 16 14 13 11 8 9 9 10 10 9 9 9 9 10 9 9 9 9 8 11 9 10 11 10 10 9 10 10 11 11 11 11 11 11 11 12 12 11 9 10 13 13 12 11 12 12 10 11 12 11 10 11 10 10 9 9 9 9 8 8 8 7 7 5
10 11 11 10 10 9 9 10 11 11 12 13 13 14 14 15 15 15 15 16 15 14 13 12 11 11 11 9 9 9 10 10 10 10 10 10 10 9 8 10 10 9 8 10 12 12 11 11 11 10 9 10 12 12 11 11 12 13 13 11 11 13 14 13 14 14 13 12 12 12 12 11 9 10 10 9 9 9 8 9 9 8 8 7 7
11 9 9 9 8 9 12 14 13 12 11 11 10 11 12 13 14 14 17 18 17 16 15 15 15 15 13 11 10 9 9 10 10 10 11 10 10 10 9 10 10 9 8 8 11 12 13 12 11 11 12 10 10 11 12 12 13 13 12 12 12 13 12 13 14 13 14 14 14 13 12 13 13 12 12 10 10 9 9 9 10 9 8 8 7
10 11 12 14 16 17 15 13 13 14 14 14 13 12 12 13 13 14 14 14 15 14 16 16 15 17 16 15 15 13 11 11 10 10 11 10 10 10 9 10 10 11 11 10 11 11 12 13 14 13 12 12 13 12 11 12 13 12 12 11 11 12 12 12 12 13 13 14 14 14 13 14 14 13 11 11 10 12 10 9 9 8 9 8 6
7 9 10 12 10 10 12 12 12 12 12 13 13 12 12 12 13 12 13 14 14 13 14 14 14 15 15 17 16 16 15 14 13 11 10 10 10 9 10 10 10 12 11 12 13 12 13 15 15 15 14 13 11 12 13 12 12 13 13 12 11 12 13 12 12 12 14 14 15 15 14 15 16 16 14 12 12 14 10 10 10 9 9 8 8
7 7 7 8 12 13 12 12 12 11 10 10 11 12 13 12 13 11 12 12 12 13 13 13 14 13 13 15 16 16 15 15 14 12 11 10 8 9 9 10 9 12 12 12 12 13 13 13 15 14 15 15 14 13 12 13 13 12 12 12 17 14 13 13 12 12 13 14 13 13 14 16 16 15 15 16 14 14 11 12 10 10 9 10 9
6 8 10 10 9 9 11 12 13 13 13 12 11 9 10 10 12 12 12 12 11 13 13 13 13 13 12 14 14 14 14 15 14 13 12 11 10 9 9 9 9 11 12 12 13 14 13 12 14 14 15 13 14 12 12 13 12 13 13 16 16 16 13 12 11 12 11 13 13 13 12 15 16 15 14 14 15 15 11 12 10 10 11 11 9
8 7 8 8 10 9 10 10 11 12 13 14 13 14 13 12 9 9 10 11 11 11 12 12 12 12 12 12 12 12 12 14 14 14 14 13 12 10 9 8 8 10 9 11 12 12 13 13 13 13 13 13 14 15 15 14 12 13 14 17 17 16 13 13 11 11 10 10 10 11 11 13 15 16 18 18 18 16 14 12 10 11 11 10 9
6 6 6 6 7 8 8 9 9 10 12 12 12 13 13 14 14 13 13 11 10 10 11 12 12 11 11 11 12 12 12 13 13 14 14 14 12 11 11 9 9 10 10 10 10 11 13 15 14 13 13 13 14 13 16 20 16 16 18 15 15 15 14 11 11 11 12 12 13 11 10 16 18 19 20 22 23 23 20 14 15 14 12 11 10
6 6 7 6 6 7 8 9 10 10 10 10 10 10 11 12 12 13 13 13 11 12 11 11 12 11 11 10 10 12 13 14 13 12 11 12 13 11 9 8 8 8 10 9 10 12 13 12 13 14 15 14 14 14 19 20 24 23 17 16 15 15 15 12 12 11 11 13 11 11 9 14 16 17 16 23 23 24 22 21 22 22 19 18 14
7 7 7 7 8 8 8 9 10 10 10 10 10 10 9 11 11 12 13 12 11 11 11 12 12 12 11 11 11 11 12 13 13 13 13 12 11 11 10 9 8 8 8 8 11 12 12 12 12 14 15 15 15 15 19 22 25 26 21 15 13 13 14 12 10 10 8 8 10 11 9 9 11 14 14 16 19 22 22 22 23 22 22 21 21
7 8 8 7 7 7 8 9 8 9 9 10 10 9 9 8 10 11 12 13 12 12 12 13 12 11 11 11 12 12 12 12 12 13 12 12 12 12 12 11 10 9 7 8 11 11 12 12 13 15 15 15 14 14 20 23 24 25 26 19 13 13 13 14 11 11 10 9 8 9 9 9 9 18 14 14 15 17 20 23 22 22 21 21 18
7 7 8 8 7 6 7 7 9 9 9 9 10 9 8 7 8 9 11 11 12 12 12 13 13 11 11 11 12 12 13 13 12 12 12 13 13 13 12 10 10 9 8 9 9 11 11 12 13 14 14 14 16 14 21 23 24 25 26 22 15 15 14 14 12 12 12 12 12 11 11 10 11 14 12 14 14 15 15 15 16 14 13 17 19
8 8 8 7 8 8 7 8 8 8 8 9 9 8 8 8 8 9 10 10 11 11 11 11 12 12 11 10 11 12 13 13 12 12 12 12 13 12 12 10 9 10 9 10 10 10 11 11 12 12 12 13 14 15 19 23 24 26 27 22 15 14 13 13 11 11 12 13 15 13 12 12 13 14 12 16 15 15 15 14 14 13 12 13 14
7 8 8 8 7 8 8 9 8 8 9 8 9 7 7 9 9 10 11 10 10 11 11 10 10 10 11 12 12 14 14 14 13 12 12 13 13 12 13 11 9 9 8 9 9 8 10 11 11 12 13 14 12 14 20 22 24 25 27 17 15 16 15 14 14 12 12 11 11 13 13 12 13 12 20 27 19 13 15 16 16 12 11 11 11
8 7 9 8 6 6 8 8 8 9 9 9 8 6 7 9 10 10 9 11 10 10 11 11 10 11 11 12 13 14 16 15 13 14 14 13 13 14 13 9 10 10 9 9 10 10 9 10 11 11 13 13 12 13 19 22 24 26 21 15 14 13 13 13 14 14 11 11 12 14 13 11 12 12 22 28 27 21 15 16 16 15 13 11 10
8 6 7 6 6 6 6 7 9 11 10 8 7 6 6 10 10 11 11 12 12 12 11 10 12 12 12 13 13 14 15 15 13 14 15 14 13 11 11 9 9 11 10 10 9 9 9 9 11 12 12 13 13 12 18 22 25 26 21 15 13 13 14 13 12 11 9 8 12 23 16 12 12 14 27 31 30 23 17 17 15 14 14 12 11
7 7 8 8 8 7 9 9 9 11 11 7 6 6 7 9 10 11 10 12 12 12 12 11 12 13 13 13 13 15 15 14 14 14 13 15 15 13 12 10 10 9 10 10 8 9 9 9 10 11 10 13 13 11 16 21 24 25 21 14 13 11 13 13 11 8 6 8 11 18 26 20 14 18 30 31 32 23 15 16 16 15 13 11 13
7 6 6 6 7 8 11 11 12 13 10 9 7 8 8 11 11 10 11 13 12 12 11 12 12 12 11 13 13 15 16 15 14 15 14 14 13 13 13 12 11 9 10 9 8 9 11 11 9 9 10 11 12 11 11 20 23 25 27 16 12 12 15 14 8 7 8 7 8 10 20 27 27 28 30 32 30 29 16 12 12 15 14 13 13
8 8 6 6 7 8 11 13 12 12 10 8 6 8 11 11 11 11 14 12 11 11 11 11 12 12 13 14 14 14 18 16 13 13 14 14 12 12 14 13 13 11 9 9 10 10 10 11 9 9 9 10 10 11 11 18 22 25 29 27 12 14 12 10 11 11 8 9 9 11 10 24 29 29 29 31 31 29 19 12 13 12 14 15 16
6 7 7 6 7 9 11 13 13 11 9 7 6 9 12 13 12 15 15 10 11 11 10 10 13 13 14 14 15 16 16 14 14 13 15 16 15 13 13 13 11 11 13 13 11 9 9 10 9 9 9 10 9 12 10 15 22 25 27 29 14 13 12 11 11 8 7 8 10 11 9 21 30 29 28 29 30 28 26 14 13 15 17 21 17
11 11 9 5 7 11 13 13 13 12 10 8 7 11 14 13 15 18 11 10 10 10 12 13 14 15 15 15 16 16 16 13 14 14 15 18 17 15 15 12 12 13 13 14 12 10 9 10 9 8 8 8 8 9 14 12 19 25 27 29 21 13 18 13 13 13 14 11 9 9 11 25 29 30 29 30 29 30 24 13 21 21 21 22 17
8 9 10 6 8 10 12 13 13 11 10 9 8 11 14 15 20 15 10 11 9 11 11 13 15 16 16 16 15 15 14 14 15 15 16 17 18 16 14 13 11 11 11 12 11 9 8 9 10 10 8 8 7 7 11 17 16 23 26 29 27 22 22 14 12 13 8 10 10 10 13 25 27 27 29 29 28 27 18 23 25 25 24 21 12
10 12 10 6 9 12 12 14 14 14 13 10 7 10 14 18 18 11 12 12 12 13 13 15 16 16 17 16 15 15 15 15 15 14 15 17 17 15 14 13 11 11 11 11 12 9 10 10 10 11 9 8 7 6 5 12 20 21 26 27 28 27 24 22 14 10 10 9 14 20 24 26 27 28 30 29 26 27 26 25 27 26 23 12 13
9 10 9 7 8 8 11 14 17 17 15 11 10 8 14 18 14 12 12 12 13 15 16 18 17 16 16 16 18 18 17 15 16 14 14 14 17 15 15 14 12 11 11 11 13 10 10 11 10 10 10 9 6 6 7 8 11 16 18 26 27 28 26 25 19 13 16 19 23 23 25 26 25 23 19 17 15 16 23 25 27 24 13 12 13
11 11 7 9 9 12 14 15 17 18 14 10 11 10 12 12 13 12 12 13 14 15 17 18 18 17 17 15 17 15 15 15 15 13 14 14 14 14 13 14 13 12 12 11 12 11 11 11 12 11 10 9 7 7 7 8 9 9 10 13 15 18 25 23 15 11 14 14 18 19 16 20 16 23 21 15 12 16 20 18 17 14 10 12 11
10 9 7 9 11 12 14 16 17 18 15 14 13 12 11 11 11 11 12 14 16 17 17 18 20 17 15 15 15 18 19 15 15 13 14 15 13 14 15 14 13 12 11 12 11 12 12 12 11 10 9 9 9 9 10 10 10 11 11 13 12 11 14 13 12 12 11 12 13 17 19 15 14 15 15 11 11 12 12 11 9 9 11 11 11
12 11 10 11 11 14 15 16 16 15 13 16 15 15 9 11 10 10 13 16 18 19 18 19 18 16 15 13 14 14 14 14 15 15 14 14 14 14 15 15 15 11 12 12 12 13 13 12 11 11 10 11 9 10 12 12 13 15 14 12 12 12 12 10 11 16 11 10 10 12 12 13 13 14 12 11 9 8 6 7 9 9 10 10 9
12 10 12 13 13 12 14 15 17 15 16 15 17 14 13 11 11 10 12 17 19 19 19 19 15 14 14 13 12 12 12 14 14 14 14 17 20 26 21 17 15 18 25 27 23 17 15 10 11 12 11 13 13 11 10 17 21 21 23 24 19 18 21 15 20 27 17 13 12 12 11 12 12 12 11 12 11 10 11 7 8 9 8 9 8
14 14 16 14 15 14 15 17 18 14 17 18 18 18 15 14 11 14 14 16 18 17 17 17 15 13 14 15 13 13 13 13 14 14 14 16 17 17 24 31 31 31 29 29 29 31 32 29 18 13 12 21 19 12 12 18 22 24 25 25 26 23 26 26 30 21 16 14 12 12 12 12 10 9 10 11 10 8 10 8 9 9 8 8 8
Wind_Direction
286 331 307 273 276 271 258 247 240 236 234 220 214 208 203 200 188 202 190 180 174 173 178 176 181 178 187 199 204 187 188 183 188 192 191 193 183 186 181 183 173 174 176 173 174 164 162 153 153 163 164 166 167 173 158 153 153 153 142 154 162 157 152 155 184 152 121 86 73 74 73 30 45 44 69 79 79 93 104 97 99 89 74 66 58
315 316 302 319 305 291 283 266 249 240 234 219 217 211 205 197 198 195 173 182 186 185 183 187 191 189 188 198 188 174 179 186 195 189 192 185 186 187 184 178 173 177 174 175 167 165 160 163 166 167 167 171 163 139 145 147 149 154 155 153 240 184 150 171 180 162 143 153 147 137 75 77 42 13 46 58 73 82 88 88 84 85 81 75 66
309 299 294 284 284 290 302 274 252 232 243 222 228 219 206 202 203 184 187 187 192 189 183 194 187 193 197 191 191 186 219 258 290 180 170 184 184 180 176 178 177 178 172 174 169 169 165 161 171 166 172 160 154 160 159 163 165 164 176 171 153 105 111 156 200 266 131 103 102 121 156 167 198 211 359 26 48 61 63 69 61 66 65 67 63
306 306 309 319 347 325 315 279 252 255 258 254 236 223 215 214 202 193 192 192 189 190 194 191 181 173 172 103 158 168 173 151 159 153 182 169 186 180 185 180 175 175 169 170 169 174 172 174 166 171 174 175 165 158 167 168 165 170 178 193 170 143 185 172 199 188 208 160 160 289 136 212 149 219 169 143 349 22 44 62 56 58 53 49 58
299 304 310 317 328 318 286 266 295 278 260 250 234 218 211 214 206 198 193 192 190 186 184 164 141 129 123 82 90 98 97 158 165 200 186 183 174 190 188 171 178 174 172 179 179 178 177 175 172 172 170 175 169 165 170 178 175 173 172 173 197 171 160 155 166 162 218 302 157 139 115 220 233 99 120 145 189 198 58 33 60 48 44 37 56
275 294 302 310 311 313 304 294 297 281 273 269 281 255 238 226 210 204 198 190 187 182 178 164 170 162 153 155 169 176 186 180 194 194 172 184 192 136 152 186 176 178 181 181 181 176 178 179 173 168 174 172 177 171 164 155 172 177 187 185 189 237 156 146 147 163 62 158 317 345 299 162 155 163 179 194 121 301 20 84 39 32 33 34 65
313 294 306 320 319 321 315 323 321 297 285 290 278 252 241 226 205 201 196 191 187 181 176 175 175 179 183 184 181 183 189 211 266 69 187 195 159 182 183 173 184 180 180 181 181 179 175 175 177 178 173 172 166 160 168 178 177 184 166 186 198 163 156 166 172 160 136 115 45 88 87 49 121 138 191 97 191 181 170 144 87 4 3 32 78
326 324 326 325 324 327 324 320 315 318 311 311 293 278 240 223 193 193 193 188 184 179 181 183 183 184 189 195 193 195 200 184 177 183 150 166 179 177 178 186 184 187 178 181 180 175 174 175 175 172 173 177 170 177 173 173 168 166 182 186 165 191 195 185 166 175 170 160 139 125 79 73 45 43 59 164 142 168 176 105 42 359 24 64 77
338 330 340 344 341 333 326 323 336 334 339 331 315 299 283 253 207 187 186 176 178 180 183 190 192 189 192 193 202 209 200 178 141 140 155 162 180 170 182 180 182 187 181 177 179 178 176 175 171 172 173 174 180 177 178 172 175 170 173 180 192 191 201 215 166 185 184 161 147 97 89 65 55 46 71 52 137 160 153 179 156 125 71 85 63
351 337 330 355 345 326 304 352 8 359 339 334 333 332 337 351 269 206 198 182 175 181 186 191 194 188 197 203 206 200 174 144 154 160 165 165 182 178 181 178 184 184 184 181 179 181 178 174 177 177 176 174 181 183 168 171 175 183 186 186 183 186 185 197 197 184 183 161 174 144 139 124 73 79 56 104 45 12 176 185 168 167 170 168 318
345 328 5 14 357 352 5 20 3 1 357 355 351 355 354 358 356 343 349 7 350 210 193 195 196 196 204 204 206 201 186 163 167 174 164 168 182 177 179 184 182 193 181 186 184 177 181 178 178 181 178 176 180 176 183 179 182 183 182 183 184 184 181 185 188 175 167 166 169 175 163 171 169 172 180 185 157 152 140 187 147 190 86 140 177
359 13 9 6 6 6 12 13 6 355 355 356 351 350 357 3 17 9 6 354 249 196 201 210 211 216 219 211 207 205 189 189 191 184 181 181 181 175 171 166 184 184 186 189 192 184 181 181 179 178 183 181 188 187 182 185 177 175 176 183 185 185 171 178 181 164 176 172 180 187 182 169 152 157 170 161 170 176 173 152 144 131 134 302 19
16 13 9 11 13 6 8 9 7 1 353 349 349 351 353 356 4 15 2 8 347 323 267 236 222 219 216 217 220 212 208 209 209 204 191 190 183 172 171 181 168 178 189 188 193 186 183 179 184 187 186 190 185 181 185 177 174 179 179 183 184 182 182 180 176 182 174 174 182 186 167 180 172 123 145 158 134 117 149 125 100 72 111 126 42
20 16 18 18 11 9 15 16 10 2 357 356 354 356 355 2 1 12 355 2 352 329 279 266 257 259 254 246 236 225 222 214 212 208 195 204 194 195 188 183 181 191 181 194 183 180 189 196 191 192 191 184 184 180 174 176 175 180 179 182 187 188 177 185 183 172 183 189 155 164 186 181 161 164 157 151 154 144 160 164 134 99 73 109 110
22 20 18 13 10 13 16 16 16 10 8 12 10 0 347 352 3 14 2 353 351 327 310 274 262 263 266 268 263 262 252 244 244 230 196 193 194 196 200 200 202 200 197 193 176 187 193 188 193 193 191 187 184 179 178 172 174 175 182 184 183 180 180 178 182 171 177 177 178 184 166 172 168 171 166 169 164 170 151 156 149 145 150 149 162
18 18 12 10 10 11 13 14 13 12 9 14 19 14 7 360 359 6 360 349 353 342 326 313 294 291 276 262 259 264 266 267 260 257 243 206 200 199 201 206 212 204 205 187 196 186 192 191 188 194 186 184 185 183 175 176 175 178 180 181 185 172 178 182 184 178 183 177 174 165 162 180 164 169 173 161 170 150 149 151 160 155 163 164 150
12 12 12 8 7 11 13 11 9 10 12 14 14 12 10 7 5 356 350 348 355 350 328 313 304 297 282 275 266 255 247 241 234 228 216 214 215 214 210 209 207 205 202 198 187 191 193 195 191 188 186 184 180 183 180 178 177 186 184 181 185 177 180 186 177 182 179 170 170 174 178 163 169 162 161 165 161 154 164 168 176 175 175 173 167
6 9 11 11 11 10 12 12 12 10 9 10 10 9 10 12 11 5 0 355 341 337 331 318 308 298 287 284 276 261 254 248 239 226 206 201 213 219 223 215 212 209 201 194 191 187 191 196 191 189 188 185 189 182 182 182 181 191 189 191 185 168 179 182 184 177 171 170 166 168 172 170 167 171 172 166 169 167 163 171 172 167 175 188 177
10 6 4 6 8 10 11 10 8 12 13 12 5 5 8 12 13 14 5 355 342 331 324 314 305 286 275 272 267 271 269 265 251 233 210 206 209 209 209 214 215 208 201 193 188 188 193 194 193 192 187 190 187 189 182 183 183 187 188 189 181 179 180 180 180 177 172 167 170 173 175 170 167 172 162 167 172 169 170 163 159 154 186 204 162
13 10 6 3 7 12 13 13 11 8 7 5 4 5 7 5 6 6 5 8 4 3 351 333 316 301 287 278 271 255 254 253 250 243 231 219 215 210 209 205 208 195 204 198 200 198 192 193 195 192 189 187 189 187 184 185 183 195 185 187 182 178 183 180 175 183 170 178 169 174 176 171 170 165 168 171 173 174 161 165 162 166 168 171 168
8 5 2 1 3 4 6 8 7 7 12 13 11 8 3 2 3 2 2 360 4 3 360 351 331 309 296 285 277 268 257 245 244 237 239 236 230 219 215 212 196 206 189 195 198 201 199 198 195 197 194 189 187 184 185 183 190 193 191 188 174 183 183 184 171 179 182 179 179 172 173 174 165 169 172 169 172 171 170 169 163 165 170 177 178
7 3 360 357 357 358 359 2 5 8 9 10 8 6 6 6 3 360 360 3 358 357 360 354 346 326 305 289 280 275 264 257 247 240 238 240 235 228 222 212 215 207 194 202 200 196 196 203 203 203 197 194 192 190 183 185 190 193 190 187 185 184 187 181 177 181 180 183 175 173 175 169 175 174 169 175 173 173 176 170 174 172 176 178 187
0 358 358 357 357 359 1 7 11 14 10 5 5 5 3 359 359 359 2 0 359 355 353 352 351 345 334 312 289 276 270 263 256 249 243 236 235 234 222 223 224 218 208 207 203 199 197 198 202 207 207 200 193 190 190 192 196 194 190 190 186 187 187 179 183 187 179 173 175 180 175 167 168 175 179 180 174 176 175 175 169 171 175 179 182
359 359 360 358 354 354 3 5 7 11 11 11 7 3 0 1 359 358 0 357 356 356 353 354 352 348 345 339 324 300 280 267 262 256 252 245 237 232 221 225 224 218 213 213 212 208 203 201 203 199 198 202 205 202 192 197 199 196 198 195 188 191 192 190 185 177 176 178 179 173 177 171 172 174 177 176 180 176 177 177 171 175 174 173 177
0 357 354 356 1 3 2 358 360 357 358 360 3 2 3 0 359 359 358 355 354 353 353 351 351 348 346 349 345 338 323 299 276 266 260 253 245 239 227 224 219 220 216 210 214 210 210 207 209 204 198 199 201 202 206 199 192 197 203 198 194 193 196 194 189 186 180 178 177 183 167 168 171 173 172 179 173 177 179 173 173 171 173 167 161
353 353 359 360 350 352 357 357 355 356 354 353 354 356 357 358 357 356 356 355 354 353 351 350 349 347 345 346 346 343 339 327 311 295 274 258 252 242 234 227 216 223 217 214 212 208 210 213 213 210 206 204 197 199 204 207 207 197 192 196 197 198 202 198 192 192 187 186 183 181 173 170 173 176 178 172 171 175 169 174 171 171 166 158 161
355 353 350 350 360 354 348 348 350 348 353 352 351 350 352 352 352 355 356 353 351 352 347 348 346 345 342 345 343 342 336 333 327 312 301 288 266 246 236 232 217 220 219 217 214 215 215 215 216 214 214 209 205 204 205 204 202 206 209 200 199 198 200 202 203 196 190 191 187 179 171 176 178 179 171 173 169 169 173 176 173 163 158 157 159
351 355 358 354 346 344 348 346 346 346 344 346 349 351 351 351 346 348 351 351 350 348 346 344 344 341 342 341 341 335 335 332 328 323 314 300 286 274 253 239 225 224 223 220 216 216 217 215 218 215 216 211 210 209 206 204 201 199 200 212 210 204 198 201 199 195 190 191 191 187 181 181 181 179 174 170 167 169 165 167 170 159 162 160 159
355 343 347 345 344 342 341 341 339 341 344 344 344 345 345 346 348 346 347 346 343 342 341 341 338 339 336 337 334 334 332 331 329 328 325 318 308 291 275 259 240 236 231 228 224 219 220 220 221 219 217 212 214 215 212 207 199 196 202 207 209 213 210 205 194 190 189 188 190 191 187 186 185 185 176 173 177 169 159 161 165 164 162 160 154
331 331 326 330 326 334 328 332 334 338 340 340 341 342 342 341 340 342 342 341 343 339 338 336 335 329 328 330 332 330 331 330 330 330 326 320 312 303 294 281 262 248 241 233 230 226 223 223 221 219 218 217 220 219 216 210 203 204 203 206 204 209 213 215 208 196 193 191 191 190 188 183 184 180 174 174 176 177 180 170 160 164 162 158 159
324 324 327 318 322 321 329 327 332 333 332 336 333 333 334 334 336 337 337 337 338 334 334 332 328 326 323 325 329 331 331 331 328 324 323 321 315 309 296 281 273 260 251 242 230 230 228 226 224 221 218 220 222 222 215 208 208 205 203 205 205 207 203 209 213 213 202 188 186 183 170 178 181 178 174 175 176 176 173 174 172 170 168 162 155
316 316 313 320 316 326 325 326 323 325 326 329 329 328 332 333 334 333 331 329 329 328 328 324 321 319 320 325 328 329 330 327 328 327 324 319 312 305 298 290 281 271 257 246 239 236 234 229 226 226 224 224 225 220 211 210 208 207 203 205 208 208 205 201 200 205 213 199 185 177 174 173 177 175 167 171 175 174 171 170 173 176 176 176 171
302 304 308 306 314 312 319 316 319 316 320 319 323 321 322 327 329 326 326 325 325 327 325 323 322 322 322 326 327 328 325 324 323 322 319 318 318 315 313 311 299 284 274 257 249 243 239 234 229 229 230 228 231 214 212 210 208 207 205 201 210 208 206 209 192 192 195 192 186 180 175 176 172 167 162 169 165 172 172 170 172 175 177 179 182
289 287 290 293 296 301 302 308 306 306 306 312 315 313 311 318 319 318 320 318 321 323 324 322 321 321 323 324 325 325 322 320 319 319 319 317 317 316 311 306 300 295 280 267 256 249 245 239 233 233 234 232 230 219 212 210 207 205 205 199 209 206 209 209 203 190 182 183 186 181 175 174 172 173 171 163 160 164 165 167 172 173 177 184 186
282 286 285 285 288 291 298 297 300 296 299 306 307 307 313 315 316 315 312 313 315 314 314 316 315 317 320 323 323 321 318 316 315 315 315 314 313 311 309 304 302 295 287 273 262 256 248 243 242 238 240 238 234 220 213 211 208 204 204 199 205 209 212 213 207 197 194 182 178 178 178 174 171 175 170 166 161 164 163 166 169 171 173 181 184
280 279 279 277 275 281 289 292 290 296 296 298 297 305 315 312 316 313 314 315 314 313 311 311 311 315 320 323 324 320 317 314 313 315 315 315 313 310 308 306 299 289 277 273 270 259 254 247 241 239 239 241 238 216 215 213 209 207 202 202 206 208 212 211 208 203 192 187 181 177 175 170 172 170 175 174 168 154 161 165 169 166 168 176 187
275 275 278 273 266 275 280 284 289 289 292 295 299 308 313 312 314 312 313 309 310 308 309 312 312 317 320 322 323 320 315 313 314 316 315 314 313 310 305 302 295 287 280 270 265 256 253 250 245 242 240 244 243 224 218 215 212 208 202 208 208 210 213 212 210 204 186 178 175 179 177 172 171 172 177 176 172 165 163 166 168 169 171 173 183
267 277 277 281 282 281 281 283 290 291 288 292 298 308 314 309 307 309 312 309 309 306 310 312 313 319 319 320 319 316 310 308 311 312 312 309 306 299 294 294 286 286 281 272 266 265 256 250 246 243 239 243 242 228 221 218 214 209 203 207 207 208 210 209 211 184 184 176 177 181 177 169 174 174 179 180 177 170 168 170 167 165 169 176 180
265 270 285 295 298 294 295 294 289 287 292 300 301 306 306 299 299 304 303 300 300 305 310 314 314 317 318 316 316 313 307 304 306 308 309 307 306 303 298 292 280 272 270 274 270 266 264 252 247 244 237 239 244 235 224 224 217 212 208 209 208 207 209 208 202 179 168 163 178 186 186 183 175 175 181 184 182 175 169 171 171 168 173 176 182
275 276 269 280 293 306 300 297 293 289 297 306 313 310 302 297 298 296 294 290 296 301 306 309 310 311 312 312 310 308 304 303 304 305 305 300 299 300 296 294 286 275 276 271 266 263 263 261 250 245 242 239 244 237 224 224 221 216 212 210 206 203 210 204 187 171 173 182 180 183 191 190 185 181 182 184 183 180 172 169 165 177 177 178 173
277 278 286 293 294 292 288 288 289 292 301 307 315 311 301 300 300 297 285 291 296 301 306 307 309 308 308 307 306 304 302 299 299 301 301 298 295 294 295 294 291 286 273 268 260 259 258 261 255 248 245 238 236 236 225 221 224 221 217 215 207 209 205 189 189 185 184 180 178 187 187 190 186 185 186 188 188 183 175 171 176 177 184 174 163
257 271 286 290 293 289 289 288 287 292 296 305 311 305 297 298 298 286 285 305 300 304 305 308 305 303 302 301 301 300 297 296 300 302 302 299 295 292 287 286 283 281 279 275 268 259 257 258 258 247 243 243 230 227 224 220 222 224 222 217 206 208 193 184 185 184 182 182 182 180 170 188 188 188 189 190 189 184 181 179 185 177 167 169 169
299 297 287 286 291 291 288 287 291 296 301 300 312 299 295 295 289 283 302 302 304 307 306 304 300 299 298 297 296 296 295 297 299 300 300 296 295 293 288 283 279 275 271 271 268 264 260 260 260 243 239 239 233 228 221 219 223 225 225 225 205 192 189 187 190 193 194 184 175 175 176 184 187 189 192 193 190 186 181 180 178 175 172 165 156
280 278 287 307 289 284 287 289 290 290 292 294 297 293 291 291 283 296 307 301 306 302 300 297 296 294 296 294 293 292 291 293 294 296 295 288 287 289 285 279 274 269 269 266 264 257 253 255 253 253 233 220 228 225 222 221 221 224 226 227 216 191 187 189 192 201 178 174 179 172 175 184 188 189 191 193 193 187 182 180 179 178 173 168 155
284 288 298 311 289 288 289 289 289 290 289 291 287 284 285 281 287 307 301 306 305 303 297 292 291 291 292 292 293 289 288 289 288 288 287 286 284 284 283 279 270 266 260 259 260 253 249 250 249 248 244 217 210 216 220 226 226 225 228 229 224 204 190 182 188 197 186 181 182 181 183 188 188 189 191 193 195 187 178 177 180 177 174 161 158
287 290 303 303 296 291 289 288 291 288 289 293 289 279 280 282 296 301 303 304 304 300 295 291 290 288 288 291 291 290 285 282 282 280 277 277 279 280 278 277 272 263 259 255 258 250 245 245 246 246 243 234 211 197 218 223 229 229 231 231 231 208 195 187 183 180 183 179 182 183 187 191 193 191 190 193 194 182 176 178 180 177 171 156 161
295 299 318 310 304 300 295 294 294 292 295 295 288 282 277 290 297 305 306 304 300 295 291 290 288 288 287 285 283 285 287 286 280 278 274 271 273 271 268 269 266 262 259 254 254 251 248 246 246 244 240 233 218 210 210 213 218 222 223 227 238 210 199 192 181 177 176 177 182 182 184 189 192 192 191 191 186 184 181 179 182 181 153 156 156
295 304 312 302 298 294 294 296 293 293 302 299 294 292 295 301 305 308 310 306 297 290 288 287 285 286 285 284 282 280 281 283 281 277 277 276 270 268 269 263 261 257 257 257 251 250 246 243 244 244 241 234 226 218 209 207 211 213 219 216 214 194 195 191 180 174 171 166 167 177 183 187 188 189 190 186 182 186 187 174 166 142 145 145 148
308 312 311 301 301 299 296 294 289 296 302 300 299 300 307 314 312 313 307 300 293 291 288 285 286 287 283 281 279 280 280 280 280 277 266 262 267 269 266 266 257 249 247 253 257 254 249 244 241 240 235 236 232 223 217 200 207 210 210 211 210 197 186 186 166 156 147 154 162 172 178 182 186 185 178 178 167 152 102 116 125 137 139 141 146
306 308 303 302 299 297 299 298 299 305 303 300 302 302 308 312 310 305 299 292 292 292 289 285 284 283 283 283 280 278 278 282 282 283 285 283 273 270 271 271 272 261 257 255 252 252 250 246 243 239 227 233 234 232 211 203 212 214 218 216 216 198 186 169 164 164 157 163 173 174 179 184 184 180 173 168 160 141 130 126 138 129 132 137 140
311 313 309 310 309 309 308 303 303 306 302 303 301 302 305 303 299 293 288 284 285 286 285 283 284 280 282 286 285 285 285 282 280 282 283 283 288 280 266 263 261 265 265 263 260 257 256 252 245 248 238 235 242 236 210 206 211 214 218 219 217 205 189 178 172 166 166 169 167 174 178 181 180 172 169 165 149 136 143 137 139 147 145 141 139